Location: Olsztyn
(53.7767°N, 20.4765°E)
Time: 21:35:05
(UTC+01:00)

Vanguard 3 - All Passes

Search period start: 25 January 2022 00:00
Search period end: 04 February 2022 00:00
Orbit: 508 x 3260 km, 33.3° (Epoch: 25 January)

Date Brightness Start Highest point End Pass type
(mag) Time Alt. Az. Time Alt. Az. Time Alt. Az.
25 Jan - 12:02:11 10° SSW 12:05:42 13° S 12:08:38 10° SSE daylight
26 Jan - 10:47:28 10° S 10:51:30 13° SSE 10:54:54 10° SE daylight
26 Jan - 12:58:33 10° SW 13:02:31 14° S 13:05:42 10° SSE daylight
27 Jan - 09:34:23 10° S 09:37:02 11° SSE 09:39:26 10° SSE daylight
27 Jan - 11:42:42 10° SSW 11:48:29 16° S 11:52:54 10° SE daylight
27 Jan - 13:56:28 10° SW 13:59:05 12° SSW 14:01:19 10° S daylight
28 Jan - 10:27:22 10° SSW 10:34:09 16° S 10:39:21 10° SE daylight
28 Jan - 12:39:42 10° SW 12:45:18 17° S 12:49:33 10° SSE daylight
29 Jan - 09:12:54 10° S 09:19:31 15° SSE 09:24:52 10° SE daylight
29 Jan - 11:23:30 10° SW 11:31:11 19° S 11:36:43 10° SE daylight
29 Jan - 13:37:50 10° SW 13:41:52 14° SSW 13:45:06 10° S daylight
30 Jan - 08:00:38 10° SSE 08:04:41 11° SSE 08:08:20 10° SE daylight
30 Jan - 10:07:43 10° SSW 10:16:41 20° S 10:23:14 10° SE daylight
30 Jan - 12:20:54 10° SW 12:28:01 19° SSW 12:33:09 10° SSE daylight
31 Jan - 08:52:39 10° SSW 09:01:52 18° SSE 09:08:58 10° SE daylight
31 Jan - 11:04:23 10° SW 11:13:46 23° S 11:20:17 10° SE daylight
31 Jan - 13:19:17 10° SW 13:24:33 16° SSW 13:28:38 10° S daylight
01 Feb - 07:38:59 10° S 07:46:51 15° SSE 07:53:27 10° ESE daylight
01 Feb - 09:48:14 10° SW 09:59:05 23° S 10:06:48 10° SE daylight
01 Feb - 12:02:06 10° WSW 12:10:37 22° SSW 12:16:35 10° SSE daylight
02 Feb - 06:29:50 10° SSE 06:31:48 10° SE 06:33:42 10° SE visible
02 Feb - 08:32:46 10° SSW 08:44:05 22° SSE 08:52:36 10° ESE daylight
02 Feb - 10:45:18 10° SW 10:56:13 26° S 11:03:41 10° SE daylight
02 Feb - 13:00:42 10° WSW 13:07:09 17° SSW 13:11:58 10° S daylight
03 Feb - 07:18:29 10° S 07:28:53 18° SSE 07:37:24 10° ESE daylight
03 Feb - 09:28:53 10° SW 09:41:22 27° S 09:50:09 10° ESE daylight
03 Feb - 11:43:16 10° WSW 11:53:05 24° SSW 11:59:52 10° SSE daylight
03 Feb - 14:02:06 10° SW 14:03:16 10° SW 14:04:21 10° SSW daylight
